Regional Weather Roundup
Issued by NWS Charleston, SC

Current Version | Previous Version | Graphics & Text | Print | Product List | Glossary On
Versions: 1 2 3 4 5 6 7 8 9 10 11 12 13 14 15 16 17 18 19 20 21 22 23 24 25 26 27 28 29 30 31 32 33 34 35 36 37 38 39 40 41 42 43 44 45 46 47 48 49 50
000
ASUS42 KCHS 210925
RWRCHS

REGIONAL WEATHER ROUNDUP
NATIONAL WEATHER SERVICE CHARLESTON SC
500 AM EDT THU AUG 21 2014

NOTE: "FAIR" INDICATES FEW OR NO CLOUDS BELOW 12,000 FEET WITH NO
SIGNIFICANT WEATHER AND/OR OBSTRUCTIONS TO VISIBILITY.

NOT ALL STATIONS ARE QUALITY CONTROLLED BY THE NATIONAL
WEATHER SERVICE. USE DATA WITH CAUTION...ESPECIALLY
DEWPOINT OBSERVATIONS.

SCZ027-030-031-034>040-042>050-211000-
...SOUTH CAROLINA...

CITY           SKY/WX    TMP DP  RH WIND       PRES   REMARKS
N CHARLESTON   PTCLDY    78  72  81 W6        30.01S
WATERFRONT PRK   N/A     81 N/A N/A W5          N/A
FORT JOHNSON   NOT AVBL
MOUNT PLEASANT FAIR      77  73  88 CALM      30.00F
JOHNS ISLAND   SUNNY     77  75  94 CALM      30.01S
PINOPOLIS        N/A     81  72  74 SW7       29.92S
MONCKS CORNER    N/A     75  73  94 CALM      30.00S
SUMMERVILLE    FAIR      73  73 100 CALM      30.02S
BEAUFORT MCAS  PTCLDY    76  70  82 W3        30.02F
BEAUFORT ARPT  FAIR      77  72  83 W6        30.01S
HILTON HEAD IS PTCLDY    75  72  88 W3        30.03F
GEORGETOWN     NOT AVBL
WALTERBORO     PTSUNNY   73 N/A N/A CALM      30.02S
ORANGEBURG     PTCLDY    73  69  87 SW5       30.01S
BARNWELL       FAIR      72  70  94 W5        30.03S
AIKEN          FAIR      72  72 100 W3        30.08R
MANNING        FAIR      73 N/A N/A CALM      30.00S
KINGSTREE      NOT AVBL
COLUMBIA       PTCLDY    76  69  79 W8        30.01R
SUMTER         CLEAR     76  72  89 S3        29.98S
FLORENCE       CLEAR     75  72  90 CALM      29.99S
MYRTLE BEACH   CLEAR     79  73  83 SW6       29.99S
N MYRTLE BEACH CLEAR     76  75  97 CALM      29.98S FOG

$$

GAZ063-065-086>088-099>101-113>116-118-119-134-136>141-150-211000-
...GEORGIA...

CITY           SKY/WX    TMP DP  RH WIND       PRES   REMARKS
SAVANNAH ARPT  PTCLDY    75  68  78 SW3       30.03F
HUNTER AAF     PTCLDY    73  71  92 SW2       30.02S
FORT STEWART   CLEAR     73  69  88 CALM      30.02F
STATESBORO     NOT AVBL
SYLVANIA       MOSUNNY   71  71 100 CALM      30.04S
CLAXTON        FAIR      72  72 100 CALM      30.04S
THOMSON        PTCLDY    71  71 100 CALM      30.09S
AUGUSTA-BUSH   CLEAR     73  68  84 CALM      30.02S
AUGUSTA-DANIEL CLEAR     75  68  78 W6        30.04S
SWAINSBORO     FAIR      72  72 100 NW3       30.06R
VIDALIA          N/A     72  70  94 W5        30.06S
ALMA           PTCLDY    73  70  90 CALM      30.06R
WAYCROSS       MOCLDY    74  73  95 CALM      30.06S
JESUP            N/A     73  70  88 CALM      30.06S
BRUNSWICK      CLEAR     73  68  83 W5        30.06R
SAINT SIMONS   CLEAR     77  68  73 W5        30.04S

$$

SCZ027-028-034-036>038-045-046-048>050-GAZ119-141-211000-
...LAKE AND SUPPLEMENTAL COASTAL OBSERVATIONS...

STATION/POSITION TIME  TEMP    WIND        PRES    WAVE   SWELL
                       AIR SEA DIR/SP/G            HT/PER HT/PER/DIR
                 (UTC) (F)     (DEG/KT/KT) (MB)    (FT/S) (FT/S/D)
UPR LAKE MARION  NOT AVBL
WINYAH BAY       0900   78     270/  2     1015.0S
LAKE MURRAY      0800   78     300/  5/  7 1015.6R
ACE BASIN NERRS  0900   75        CALM     1016.0S
FORT PULASKI     0900   78     280/  7/  8 1017.0F
SAPELO ISLAND    0900   77     290/  3     1017.0F

$$

ANZ835-935-AMZ111-154-330-350-352-354-374-450-454-472-211000-
...C-MAN AND BUOY OBSERVATIONS...

STATION/POSITION TIME  TEMP    WIND        PRES    WAVE   SWELL
                       AIR SEA DIR/SP/G            HT/PER HT/PER/DIR
                 (UTC) (F)     (DEG/KT/KT) (MB)    (FT/S) (FT/S/D)
FOLLY BEACH CMAN 0900   78     270/  4/  5 1016.5S
BUOY 41004       0900   83 83  220/ 10/ 10 1015.0F   3/ 5   2/ 5
BUOY 41008       0900   83 85  310/ 12/ 14 1016.8F   2/ 4   2/130/ 7
5E ST. MARYS GA  0900      83                N/A     1/ 8
FRYING PAN BUOY  NOT AVBL
BUOY 41025       0900   79     190/  4/  6 1015.7R   3/ 9   3/ 70/ 9
CAPE LOOKOUT NC  0900   80     210/  4/  5 1015.4F
BUOY 41002       0833   81 81  240/ 14/ 16 1017.6R   3/ 6   2/100/ 9
BUOY 41010       0900   84 85  200/ 12/ 14 1018.3R   2/ 4   2/120/ 8
BUOY 41012       NOT AVBL
ST AUGUSTINE FL  0900   76     240/  2/  3 1018.3F
CAPERS NEARSHORE 0800   83     280/  6/  6   N/A
FRIPP NEARSHORE  NOT AVBL


$$


USA.gov is the U.S. government's official web portal to all federal, state and local government web resources and services.